Weather History for Valentine, NE

Change the Weather History Date:

Tuesday, January 22, 2013

  Actual Average Record
Temperature  
Mean Temperature 24 °F 24 °F  
Max Temperature 38 °F 37 °F 68 °F (1967)
Min Temperature 10 °F 11 °F -23 °F (2003)
Degree Days  
Heating Degree Days 41 41  
Month to date heating degree days 897 915  
Since 1 July heating degree days 3573 3810  
Cooling Degree Days 0 0  
Month to date cooling degree days 0 0  
Year to date cooling degree days 0 0  
Moisture  
Dew Point 14 °F    
Average Humidity 66    
Maximum Humidity 84    
Minimum Humidity 48    
Precipitation  
Precipitation 0.00 in 0.01 in 0.32 in (1899)
Month to date precipitation 0.13 0.18  
Year to date precipitation 0.13 0.18  
Snow  
Snow 0.00 in 0.10 in 5.10 in (1982)
Month to date snowfall 3.4 2.7  
Since 1 July snowfall 16.7 15.4  
Snow Depth T in    
Sea Level Pressure  
Sea Level Pressure 30.20 in    
Wind  
Wind Speed 6 mph (SSE)    
Max Wind Speed 13 mph    
Max Gust Speed 15 mph    
Visibility 10 miles    
Events      
T = Trace of Precipitation, MM = Missing Value Source: NWS Daily Summary

Daily Weather History Graph

Daily Weather History Graph

Search for Another Location

Airport:

Trip Planner

Search our weather history database for the weather conditions in past years. The results will help you decide how hot, cold, wet, or windy it might be!

Date:

Astronomy

Jan. 22, 2013 Rise Set
Actual Time 8:05 AM CST 5:42 PM CST
Civil Twilight 7:34 AM CST 6:13 PM CST
Nautical Twilight 7:00 AM CST 6:47 PM CST
Astronomical Twilight 6:26 AM CST 7:21 PM CST
Moon 2:05 PM CST (1/22) 4:29 AM CST (1/22)
Length of Visible Light 10h 38m
Length of Day
9h 36m
Waxing Gibbous, 83% of the Moon is Illuminated
Jan 22
Waxing Gibbous
Jan 26
Full
Feb 3
Last Quarter
Feb 10
New
Feb 17
First Quarter

Hourly Weather History & Observations

Time (CST) Temp. Windchill Dew Point Humidity Pressure Visibility Wind Dir Wind Speed Gust Speed Precip Events Conditions
12:52 AM 10.9 °F 2.9 °F 7.0 °F 84% 30.31 in 10.0 mi East 4.6 mph - N/A   Partly Cloudy
1:52 AM 10.0 °F 1.8 °F 6.1 °F 84% 30.29 in 10.0 mi ENE 4.6 mph - N/A   Overcast
2:38 AM 10.4 °F -0.4 °F 6.8 °F 85% 30.14 in 10.0 mi ENE 6.9 mph - N/A   Overcast
2:52 AM 10.9 °F 1.4 °F 7.0 °F 84% 30.27 in 10.0 mi ENE 5.8 mph - N/A   Overcast
3:52 AM 12.0 °F 2.7 °F 8.1 °F 84% 30.25 in 10.0 mi East 5.8 mph - N/A   Overcast
4:52 AM 12.0 °F -0.4 °F 7.0 °F 80% 30.24 in 10.0 mi East 9.2 mph - N/A   Overcast
5:32 AM 12.2 °F 0.7 °F 6.8 °F 79% 30.10 in 10.0 mi ESE 8.1 mph - N/A   Overcast
5:52 AM 12.0 °F -1.3 °F 7.0 °F 80% 30.23 in 10.0 mi ESE 10.4 mph - N/A   Overcast
6:52 AM 12.9 °F 0.7 °F 8.1 °F 81% 30.25 in 10.0 mi East 9.2 mph - N/A   Overcast
7:41 AM 12.2 °F -1.8 °F 6.8 °F 79% 30.11 in 10.0 mi East 11.5 mph - N/A   Overcast
7:52 AM 12.0 °F -2.0 °F 7.0 °F 80% 30.26 in 10.0 mi East 11.5 mph - N/A   Overcast
8:52 AM 14.0 °F 2.9 °F 9.0 °F 80% 30.26 in 10.0 mi East 8.1 mph - N/A   Overcast
9:52 AM 15.1 °F 5.2 °F 10.9 °F 84% 30.27 in 10.0 mi ESE 6.9 mph - N/A   Overcast
10:25 AM 17.6 °F 9.3 °F 12.2 °F 79% 30.12 in 10.0 mi SSE 5.8 mph - N/A   Overcast
10:52 AM 19.0 °F 12.3 °F 15.1 °F 85% 30.26 in 8.0 mi ESE 4.6 mph - N/A   Overcast
11:52 AM 21.9 °F 14.5 °F 18.0 °F 85% 30.25 in 6.0 mi South 5.8 mph - N/A   Overcast
12:09 PM 24.8 °F 19.1 °F 19.4 °F 80% 30.11 in 7.0 mi SSW 4.6 mph - N/A   Overcast
12:50 PM 26.6 °F 22.6 °F 21.2 °F 80% 30.08 in 8.0 mi SW 3.5 mph - N/A   Scattered Clouds
12:51 PM 27.0 °F 21.6 °F 21.0 °F 78% 30.20 in 8.0 mi SW 4.6 mph - N/A   Scattered Clouds
1:52 PM 33.1 °F 26.1 °F 21.0 °F 61% 30.16 in 10.0 mi SW 8.1 mph - N/A   Clear
2:52 PM 36.0 °F 31.1 °F 19.9 °F 52% 30.15 in 10.0 mi West 5.8 mph - N/A   Clear
3:52 PM 37.0 °F 31.6 °F 19.9 °F 50% 30.15 in 10.0 mi West 6.9 mph - N/A   Clear
4:52 PM 37.0 °F 33.3 °F 19.9 °F 50% 30.16 in 10.0 mi West 4.6 mph - N/A   Clear
5:52 PM 28.9 °F - 19.9 °F 69% 30.18 in 10.0 mi Calm Calm - N/A   Clear
6:52 PM 25.0 °F 20.7 °F 18.0 °F 75% 30.19 in 10.0 mi WNW 3.5 mph - N/A   Clear
7:52 PM 23.0 °F 15.8 °F 18.0 °F 81% 30.18 in 10.0 mi West 5.8 mph - N/A   Clear
8:52 PM 26.1 °F 20.5 °F 19.0 °F 75% 30.18 in 10.0 mi WNW 4.6 mph - N/A   Clear
9:52 PM 21.0 °F 12.4 °F 16.0 °F 81% 30.19 in 10.0 mi WSW 6.9 mph - N/A   Clear
10:52 PM 21.0 °F 11.4 °F 16.0 °F 81% 30.20 in 10.0 mi WSW 8.1 mph - N/A   Clear
11:52 PM 19.9 °F 12.1 °F 15.1 °F 81% 30.21 in 10.0 mi West 5.8 mph - N/A   Clear